Retour au catalogue

GAOFEN 10R

ActifScienceSSO
NORAD 44622·PAYLOAD·🇨🇳 China

Lancé Oct 4, 2019 depuis Taiyuan Satellite Launch Center

Loading…

Prochains Passages (prochaines 24 heures)

TLE

FraisSource: Space-Track

Époque: Sep 14, 2026, 14:47 UTC

1 44622U 19066A   26257.61609330  .00000816  00000-0  10671-3 0  9993
2 44622  98.0592 211.8888 0005060 190.2691 169.8419 14.83165196375634

Suivez GAOFEN 10R en temps réel avec AllMySat

Download on the App Store